Vorticity
-2 16 7 14 46 21 20 -31 7 28 6 14 14 5 4 1 -9 2 6 7 7 12 8 -2 -4 -9 -10 15 12 20 26 14 8 10 10 -8 12 11 13 12 7 8 8 12
13 4 35 -11 25 -22 19 11 21 -19 -14 -13 -28 -19 -17 -15 -14 1 -4 -4 -0 4 4 5 19 8 -6 2 12 7 19 13 9 9 9 14 14 13 6 5 9 11 9 8
34 -1 26 29 40 26 7 6 17 15 4 24 29 15 8 13 12 11 13 9 11 15 14 16 16 17 18 10 4 14 9 16 17 16 16 15 10 9 10 10 9 9 9 10
5 11 10 15 0 26 28 8 14 26 28 -7 -1 12 16 20 18 10 12 12 11 7 8 8 9 11 7 16 17 15 14 12 13 11 10 9 9 9 8 7 8 9 9 9
5 12 8 -1 6 9 15 13 13 31 23 22 14 9 11 13 14 12 10 14 16 15 13 15 16 14 12 16 17 14 13 10 9 7 7 9 7 5 6 6 5 5 6 9
13 16 5 -5 13 34 19 15 16 18 18 18 19 11 24 16 13 12 8 15 14 14 14 12 11 19 14 17 14 10 7 9 7 6 7 5 4 5 6 5 6 8 11 12
5 3 14 10 1 1 5 3 8 8 17 19 16 15 14 12 10 10 9 9 10 14 16 14 17 18 20 14 15 14 6 6 6 7 7 4 4 5 5 9 14 15 14 12
21 6 19 13 12 2 8 6 5 3 3 2 2 4 7 10 11 12 13 13 12 15 18 13 16 16 15 11 18 11 6 5 4 6 5 5 4 5 9 9 14 14 12 11
-2 6 -7 0 11 6 5 3 1 -0 11 18 16 19 13 10 14 18 18 17 17 18 19 18 16 20 9 9 11 14 23 13 10 7 6 3 5 5 10 15 9 12 10 10
4 25 19 12 31 20 11 2 8 10 6 6 3 9 7 7 13 15 13 15 16 19 20 26 20 17 8 13 17 16 13 6 6 6 3 3 5 4 3 13 10 11 11 11
9 15 15 14 12 2 1 17 4 5 4 6 7 2 10 12 15 11 16 10 12 12 19 14 16 11 11 12 9 6 5 6 5 3 5 5 4 2 4 13 10 9 16 12
7 7 8 6 12 8 4 9 21 3 10 10 12 3 9 15 10 8 16 13 14 11 10 11 15 15 14 11 8 7 6 5 3 4 4 5 6 -0 16 5 6 16 14 12
10 8 9 10 14 14 10 16 2 14 20 8 15 13 7 14 6 8 7 5 5 7 11 15 9 7 9 7 6 7 7 7 5 11 24 6 12 -13 18 6 19 12 16 14
11 16 25 32 28 29 20 24 7 9 13 10 8 9 11 8 6 8 12 8 6 6 7 8 9 9 10 10 13 12 17 16 17 16 9 20 34 34 22 7 8 3 9 15
15 26 29 25 30 30 25 29 8 21 5 7 8 9 9 11 22 3 8 8 7 10 9 8 8 9 8 8 8 8 8 7 7 7 7 12 14 13 5 10 7 7 6 6
10 22 21 17 16 16 22 24 8 21 3 5 9 6 3 7 10 18 7 10 9 7 5 6 6 8 16 18 13 10 9 7 7 7 7 8 9 7 10 -0 -1 4 10 14
16 10 22 20 9 14 23 3 9 34 8 5 4 6 10 6 7 9 7 7 7 3 4 7 11 11 15 21 23 22 21 18 14 10 10 10 7 19 9 11 9 12 11 1
23 8 7 7 11 20 10 -4 17 6 13 8 8 6 13 3 7 7 6 5 3 4 6 14 16 20 13 12 12 14 17 19 20 19 18 15 14 14 9 11 10 14 3 21
21 22 9 6 6 9 12 12 11 12 10 28 1 5 7 9 4 3 6 6 3 15 22 22 16 12 10 9 9 9 12 12 10 8 8 9 10 8 10 13 16 17 11 11
17 23 20 8 6 3 4 20 14 11 13 10 16 19 24 19 5 4 4 14 21 21 13 10 9 8 10 13 12 13 13 14 14 17 12 14 14 14 20 19 17 19 23 20
12 17 26 17 14 6 9 11 5 5 6 5 3 2 3 4 10 22 19 19 16 15 12 9 9 11 12 13 14 14 14 14 13 18 23 10 2 3 6 6 5 3 8 14
7 10 12 20 21 19 12 11 12 12 16 21 21 24 24 22 18 13 10 11 13 8 10 15 15 16 16 16 16 16 16 16 15 15 15 15 15 13 12 12 12 12 15 19
11 12 11 11 14 16 19 22 19 14 13 14 14 13 11 9 10 10 12 12 12 14 12 11 11 11 11 10 8 8 8 9 9 9 10 10 9 10 10 10 11 11 11 11
14 11 11 8 12 12 11 15 16 13 8 5 11 14 14 15 15 16 16 13 11 10 10 12 11 9 7 8 10 12 12 12 11 11 10 10 10 10 10 10 10 9 9 9
7 11 11 8 7 4 5 4 5 5 4 7 7 8 14 14 13 15 14 13 12 12 12 9 6 7 10 12 11 9 8 8 9 9 10 11 12 12 12 11 10 10 10 10
14 9 5 5 7 10 12 11 14 12 9 10 11 6 5 8 10 10 10 10 9 7 6 6 7 8 11 11 9 9 8 9 11 12 12 9 8 8 9 10 11 13 13 13
11 11 13 17 15 12 10 7 5 7 10 12 10 9 14 9 8 6 5 8 10 10 11 12 10 11 12 9 8 7 9 11 11 9 10 9 10 10 12 13 10 7 8 9
Height
3032 3030 3029 3028 3028 3031 3031 3037 3040 3041 3045 3049 3051 3052 3052 3054 3054 3055 3057 3058 3060 3062 3065 3066 3068 3069 3070 3070 3070 3071 3071 3073 3076 3078 3080 3081 3081 3081 3081 3082 3083 3085 3086 3084
3023 3026 3025 3025 3025 3027 3029 3031 3033 3037 3036 3043 3047 3048 3048 3049 3051 3051 3052 3053 3054 3056 3058 3061 3061 3062 3063 3064 3065 3065 3066 3066 3068 3071 3073 3074 3074 3074 3075 3076 3078 3078 3076 3075
3021 3023 3022 3021 3017 3019 3023 3026 3029 3028 3027 3036 3038 3040 3043 3045 3044 3043 3044 3046 3047 3049 3050 3051 3052 3053 3055 3056 3057 3058 3059 3060 3062 3064 3066 3068 3069 3070 3071 3071 3071 3070 3069 3067
3022 3022 3020 3016 3015 3015 3018 3022 3023 3021 3024 3029 3032 3035 3036 3036 3036 3037 3038 3039 3040 3041 3042 3043 3044 3044 3046 3048 3049 3051 3053 3054 3056 3058 3061 3063 3064 3064 3064 3064 3064 3063 3063 3061
3022 3021 3019 3018 3018 3018 3017 3019 3017 3016 3019 3023 3025 3028 3028 3029 3030 3031 3032 3033 3033 3033 3034 3034 3036 3038 3039 3040 3041 3043 3047 3050 3052 3054 3056 3057 3058 3058 3058 3058 3057 3056 3054 3052
3022 3021 3018 3019 3017 3016 3016 3016 3015 3015 3015 3016 3020 3021 3024 3023 3023 3024 3025 3025 3026 3026 3026 3027 3029 3031 3033 3034 3035 3039 3043 3046 3047 3049 3050 3051 3051 3052 3052 3052 3050 3048 3047 3044
3021 3019 3017 3016 3016 3016 3017 3022 3016 3015 3015 3015 3017 3019 3019 3019 3019 3019 3019 3020 3019 3019 3020 3021 3022 3024 3027 3029 3031 3035 3037 3040 3042 3044 3045 3046 3046 3047 3046 3045 3043 3040 3038 3037
3020 3020 3017 3014 3014 3015 3014 3014 3014 3015 3015 3014 3014 3015 3015 3016 3015 3015 3014 3013 3013 3013 3013 3014 3016 3018 3022 3024 3026 3028 3031 3034 3037 3038 3040 3041 3041 3040 3039 3038 3035 3033 3031 3029
3018 3016 3014 3012 3012 3011 3011 3011 3012 3012 3012 3012 3012 3012 3012 3012 3011 3011 3010 3009 3008 3008 3007 3008 3010 3013 3016 3019 3020 3023 3025 3028 3031 3033 3034 3034 3034 3034 3032 3030 3028 3026 3024 3023
3015 3012 3010 3010 3008 3006 3007 3007 3009 3009 3009 3009 3010 3010 3010 3010 3009 3008 3007 3007 3006 3004 3004 3004 3006 3009 3012 3014 3016 3018 3021 3023 3026 3027 3028 3028 3028 3026 3025 3023 3021 3019 3017 3016
3008 3009 3006 3003 3003 3002 3001 3001 3003 3005 3006 3007 3008 3007 3007 3007 3006 3006 3006 3005 3004 3003 3003 3003 3005 3007 3009 3010 3013 3015 3017 3019 3020 3021 3022 3021 3021 3020 3018 3017 3016 3013 3011 3009
3002 3000 2998 2998 2997 2996 2996 2997 2998 3000 3002 3003 3004 3003 3003 3004 3004 3004 3004 3003 3003 3002 3002 3002 3003 3005 3006 3008 3010 3011 3013 3014 3014 3014 3014 3014 3013 3013 3012 3010 3009 3007 3005 3003
2996 2992 2989 2988 2988 2988 2989 2991 2993 2994 2997 2998 3000 3000 3000 3000 3001 3001 3002 3002 3002 3001 3002 3001 3002 3002 3002 3003 3005 3006 3007 3007 3007 3007 3006 3005 3005 3005 3005 3004 3003 3001 2999 2998
2989 2983 2980 2978 2975 2978 2980 2984 2988 2990 2992 2994 2995 2996 2996 2997 2998 2999 2999 2999 2999 2999 2999 2999 2999 2999 2999 3000 3000 3000 3000 3000 3000 3000 2999 2999 2998 2998 2998 2998 2998 2996 2995 2993
2985 2978 2974 2972 2970 2971 2974 2978 2983 2986 2988 2991 2992 2993 2993 2994 2994 2995 2996 2996 2995 2995 2995 2995 2995 2994 2994 2993 2993 2993 2994 2993 2993 2993 2993 2992 2992 2992 2992 2992 2991 2990 2989 2988
2982 2977 2974 2972 2971 2971 2973 2977 2979 2981 2985 2987 2989 2990 2991 2992 2991 2992 2992 2991 2991 2991 2991 2990 2989 2988 2987 2985 2985 2985 2986 2986 2986 2986 2986 2985 2985 2985 2985 2985 2983 2983 2983 2982
2980 2978 2975 2973 2972 2973 2974 2976 2978 2980 2981 2982 2984 2986 2986 2987 2988 2988 2988 2988 2987 2987 2986 2984 2983 2981 2980 2979 2978 2977 2977 2977 2978 2978 2978 2978 2978 2977 2977 2977 2976 2975 2976 2975
2978 2977 2976 2974 2973 2973 2974 2976 2976 2976 2978 2979 2981 2982 2983 2983 2984 2983 2983 2983 2983 2982 2980 2978 2977 2975 2975 2974 2973 2972 2971 2971 2970 2971 2971 2970 2970 2970 2969 2968 2968 2967 2967 2966
2975 2975 2975 2974 2973 2973 2974 2973 2974 2974 2976 2976 2976 2977 2978 2978 2978 2978 2977 2977 2976 2974 2973 2972 2971 2971 2970 2969 2968 2967 2966 2965 2965 2965 2964 2964 2963 2962 2961 2959 2958 2958 2958 2958
2974 2972 2972 2972 2972 2971 2970 2970 2970 2971 2971 2971 2971 2971 2972 2971 2971 2972 2971 2970 2969 2968 2967 2967 2967 2966 2965 2964 2963 2962 2961 2960 2959 2958 2958 2957 2956 2955 2954 2952 2951 2949 2948 2948
2973 2970 2969 2968 2969 2968 2968 2967 2966 2967 2967 2967 2966 2967 2967 2966 2966 2965 2965 2964 2964 2964 2963 2963 2962 2961 2960 2959 2958 2957 2956 2954 2953 2952 2951 2951 2950 2949 2948 2946 2944 2942 2941 2939
2971 2969 2967 2966 2965 2965 2966 2965 2963 2962 2961 2960 2961 2961 2960 2960 2960 2960 2960 2960 2959 2959 2959 2958 2957 2956 2955 2954 2953 2952 2951 2950 2949 2948 2947 2946 2944 2943 2941 2939 2937 2935 2933 2932
2969 2967 2965 2964 2963 2962 2961 2960 2959 2958 2957 2957 2957 2957 2956 2956 2955 2956 2956 2956 2956 2955 2955 2954 2953 2952 2952 2951 2950 2949 2948 2946 2945 2944 2942 2941 2939 2937 2935 2933 2931 2929 2927 2925
2966 2964 2963 2962 2961 2959 2959 2959 2958 2957 2955 2954 2954 2954 2953 2952 2952 2951 2951 2951 2951 2951 2950 2950 2949 2948 2948 2947 2946 2945 2943 2942 2940 2939 2937 2935 2933 2931 2929 2927 2925 2922 2919 2917
2963 2962 2961 2959 2958 2958 2957 2956 2956 2955 2954 2953 2952 2951 2950 2949 2949 2948 2948 2947 2947 2946 2946 2945 2945 2944 2943 2941 2940 2939 2938 2936 2934 2932 2930 2928 2926 2924 2922 2919 2916 2914 2911 2908
2959 2958 2957 2956 2955 2954 2953 2952 2951 2950 2949 2949 2948 2947 2947 2946 2945 2945 2944 2943 2943 2942 2941 2941 2940 2939 2937 2936 2935 2934 2932 2931 2929 2927 2925 2923 2920 2918 2915 2912 2909 2905 2902 2899
2953 2952 2951 2950 2949 2949 2949 2947 2946 2945 2944 2943 2942 2941 2941 2940 2940 2939 2939 2938 2937 2936 2936 2935 2934 2933 2932 2931 2930 2928 2926 2925 2923 2921 2919 2917 2914 2911 2908 2904 2901 2897 2893 2888